2020-12-23 00:07:49 r, 17.16m,0000000011Hz,0000040367c,0000000.088s, 006.7C,00002191
2020-12-23 00:17:48 r, 17.03m,0000000013Hz,0000035692c,0000000.077s, 006.4C,00002191
2020-12-23 00:27:47 r, 17.03m,0000000013Hz,0000035712c,0000000.078s, 006.4C,00002191
2020-12-23 00:37:48 r, 17.00m,0000000013Hz,0000034779c,0000000.075s, 006.4C,00002191
2020-12-23 00:47:50 r, 17.05m,0000000013Hz,0000036237c,0000000.079s, 006.1C,00002191
2020-12-23 00:57:47 r, 17.22m,0000000011Hz,0000042638c,0000000.093s, 005.8C,00002191
2020-12-23 01:07:50 r, 17.28m,0000000010Hz,0000044678c,0000000.097s, 005.4C,00002191
2020-12-23 01:17:48 r, 17.31m,0000000010Hz,0000046255c,0000000.100s, 005.1C,00002191
2020-12-23 01:27:47 r, 17.32m,0000000010Hz,0000046475c,0000000.101s, 004.8C,00002191
2020-12-23 01:37:50 r, 17.21m,0000000011Hz,0000042234c,0000000.092s, 004.5C,00002191
2020-12-23 01:47:48 r, 17.26m,0000000010Hz,0000044279c,0000000.096s, 004.5C,00002191
2020-12-23 01:57:47 r, 17.43m,0000000009Hz,0000051276c,0000000.111s, 004.1C,00002191
2020-12-23 02:07:48 r, 17.72m,0000000006Hz,0000067285c,0000000.146s, 003.8C,00002191
2020-12-23 02:17:50 r, 17.68m,0000000007Hz,0000064994c,0000000.141s, 003.5C,00002191
2020-12-23 02:27:47 r, 17.60m,0000000007Hz,0000060196c,0000000.131s, 003.2C,00002191
2020-12-23 02:37:49 r, 17.34m,0000000010Hz,0000047330c,0000000.103s, 002.9C,00002191
2020-12-23 02:47:48 r, 17.59m,0000000008Hz,0000059300c,0000000.129s, 002.5C,00002191
2020-12-23 02:57:47 r, 17.58m,0000000008Hz,0000058732c,0000000.127s, 002.2C,00002191
2020-12-23 03:07:50 r, 17.57m,0000000008Hz,0000058493c,0000000.127s, 001.9C,00002191
2020-12-23 03:17:48 r, 17.59m,0000000008Hz,0000059441c,0000000.129s, 001.9C,00002191
2020-12-23 03:27:47 r, 17.59m,0000000008Hz,0000059773c,0000000.130s, 001.6C,00002191
2020-12-23 03:37:50 r, 17.62m,0000000008Hz,0000061052c,0000000.132s, 001.6C,00002191
2020-12-23 03:47:48 r, 17.66m,0000000007Hz,0000063632c,0000000.138s, 001.2C,00002191
2020-12-23 03:57:47 r, 17.76m,0000000007Hz,0000069908c,0000000.152s, 000.9C,00002191
2020-12-23 04:07:50 r, 17.77m,0000000007Hz,0000070335c,0000000.153s, 000.6C,00002191
2020-12-23 04:17:48 r, 17.78m,0000000006Hz,0000071358c,0000000.155s, 000.3C,00002191
2020-12-23 04:27:47 r, 17.79m,0000000006Hz,0000072017c,0000000.156s, 000.3C,00002191
2020-12-23 04:37:48 r, 17.72m,0000000007Hz,0000067136c,0000000.146s, 000.1C,00002191
2020-12-23 04:47:50 r, 17.84m,0000000007Hz,0000075304c,0000000.163s, 000.1C,00002191
2020-12-23 04:57:47 r, 17.98m,0000000005Hz,0000085142c,0000000.185s,-000.4C,00002191
2020-12-23 05:07:49 r, 18.10m,0000000005Hz,0000095572c,0000000.207s,-000.7C,00002191
2020-12-23 05:17:48 r, 18.06m,0000000005Hz,0000091159c,0000000.198s,-000.7C,00002191
2020-12-23 05:27:47 r, 17.93m,0000000005Hz,0000081887c,0000000.178s,-001.0C,00002191
2020-12-23 05:37:50 r, 18.06m,0000000005Hz,0000091594c,0000000.199s,-001.3C,00002191
2020-12-23 05:47:48 r, 18.22m,0000000004Hz,0000106366c,0000000.231s,-001.7C,00002191
2020-12-23 05:57:47 r, 18.29m,0000000004Hz,0000113936c,0000000.247s,-001.7C,00002191
2020-12-23 06:07:50 r, 18.41m,0000000004Hz,0000126582c,0000000.275s,-002.0C,00002191
2020-12-23 06:17:48 r, 18.51m,0000000004Hz,0000139317c,0000000.302s,-002.0C,00002191
2020-12-23 06:27:47 r, 18.52m,0000000003Hz,0000141017c,0000000.306s,-002.3C,00002191
2020-12-23 06:37:48 r, 18.57m,0000000004Hz,0000146856c,0000000.319s,-002.3C,00002191
2020-12-23 06:47:49 r, 18.58m,0000000003Hz,0000149416c,0000000.324s,-002.3C,00002191
2020-12-23 06:57:47 r, 18.61m,0000000003Hz,0000152704c,0000000.331s,-002.3C,00002191
2020-12-23 07:07:49 r, 18.68m,0000000003Hz,0000162069c,0000000.352s,-002.6C,00002191
2020-12-23 07:17:48 r, 17.85m,0000000006Hz,0000075798c,0000000.164s,-002.6C,00002191
2020-12-23 07:27:49 r, 16.63m,0000000019Hz,0000024507c,0000000.053s,-003.0C,00002191
2020-12-23 07:37:47 r, 14.85m,0000000096Hz,0000004775c,0000000.010s,-003.3C,00002191
2020-12-23 07:47:50 r, 13.01m,0000000529Hz,0000000000c,0000000.000s,-003.6C,00002191
2020-12-23 07:57:48 r, 11.07m,0000003163Hz,0000000000c,0000000.000s,-003.6C,00002191
2020-12-23 08:07:47 r, 09.41m,0000014507Hz,0000000000c,0000000.000s,-003.6C,00002191
2020-12-23 08:17:48 r, 08.21m,0000043852Hz,0000000000c,0000000.000s,-003.6C,00002191
2020-12-23 08:27:49 r, 07.36m,0000096341Hz,0000000000c,0000000.000s,-003.6C,00002191
2020-12-23 08:37:47 r, 06.80m,0000161362Hz,0000000000c,0000000.000s,-003.6C,00002191
2020-12-23 08:47:49 r, 06.36m,0000241828Hz,0000000000c,0000000.000s,-003.6C,00002191
2020-12-23 08:57:48 r, 05.99m,0000339210Hz,0000000000c,0000000.000s,-003.6C,00002191
2020-12-23 09:07:47 r, 00.00m,0000469282Hz,0000000000c,0000000.000s,-003.6C,00002191
2020-12-23 09:17:48 r, 00.00m,0000443239Hz,0000000000c,0000000.000s,-003.3C,00002191
2020-12-23 09:27:50 r, 00.00m,0000599612Hz,0000000000c,0000000.000s,-003.3C,00002191
2020-12-23 09:37:47 r, 00.00m,0000599478Hz,0000000000c,0000000.000s,-003.3C,00002191
2020-12-23 09:47:50 r, 00.00m,0000599510Hz,0000000000c,0000000.000s,-003.0C,00002191
2020-12-23 09:57:48 r, 00.00m,0000599473Hz,0000000000c,0000000.000s,-002.6C,00002191
2020-12-23 10:07:47 r, 00.00m,0000599513Hz,0000000000c,0000000.000s,-002.6C,00002191
2020-12-23 10:17:48 r, 00.00m,0000599428Hz,0000000000c,0000000.000s,-002.3C,00002191
2020-12-23 10:27:49 r, 00.00m,0000599448Hz,0000000000c,0000000.000s,-002.3C,00002191
2020-12-23 10:37:47 r, 00.00m,0000599504Hz,0000000000c,0000000.000s,-002.6C,00002191
2020-12-23 10:47:49 r, 00.00m,0000599270Hz,0000000000c,0000000.000s,-002.0C,00002191
2020-12-23 10:57:48 r, 00.00m,0000599220Hz,0000000000c,0000000.000s,-001.3C,00002191
2020-12-23 11:07:47 r, 00.00m,0000599194Hz,0000000000c,0000000.000s,-000.7C,00002191
2020-12-23 11:17:48 r, 00.00m,0000599276Hz,0000000000c,0000000.000s,-000.7C,00002191
2020-12-23 11:27:49 r, 00.00m,0000599294Hz,0000000000c,0000000.000s,-000.7C,00002191
2020-12-23 11:37:47 r, 00.00m,0000599256Hz,0000000000c,0000000.000s, 000.1C,00002191
2020-12-23 11:47:50 r, 00.00m,0000599078Hz,0000000000c,0000000.000s, 000.6C,00002191
2020-12-23 11:57:48 r, 00.00m,0000599046Hz,0000000000c,0000000.000s, 000.9C,00002191
2020-12-23 12:07:47 r, 00.00m,0000599192Hz,0000000000c,0000000.000s, 000.1C,00002191
2020-12-23 12:17:50 r, 00.00m,0000599318Hz,0000000000c,0000000.000s,-001.0C,00002191
2020-12-23 12:27:48 r, 00.00m,0000599367Hz,0000000000c,0000000.000s,-001.7C,00002191
2020-12-23 12:37:47 r, 00.00m,0000599398Hz,0000000000c,0000000.000s,-002.3C,00002191
2020-12-23 12:47:48 r, 00.00m,0000599373Hz,0000000000c,0000000.000s,-002.3C,00002191
2020-12-23 12:57:48 r, 00.00m,0000599352Hz,0000000000c,0000000.000s,-002.6C,00002191
2020-12-23 13:07:47 r, 00.00m,0000599298Hz,0000000000c,0000000.000s,-002.6C,00002191
2020-12-23 13:17:48 r, 00.00m,0000599390Hz,0000000000c,0000000.000s,-002.6C,00002191
2020-12-23 13:27:49 r, 00.00m,0000599324Hz,0000000000c,0000000.000s,-002.6C,00002191
2020-12-23 13:37:47 r, 00.00m,0000599346Hz,0000000000c,0000000.000s,-002.3C,00002191
2020-12-23 13:47:49 r, 00.00m,0000599283Hz,0000000000c,0000000.000s,-002.6C,00002191
2020-12-23 13:57:48 r, 00.00m,0000599336Hz,0000000000c,0000000.000s,-003.0C,00002191
2020-12-23 14:07:47 r, 00.00m,0000599479Hz,0000000000c,0000000.000s,-003.0C,00002191
2020-12-23 14:17:49 r, 00.00m,0000599441Hz,0000000000c,0000000.000s,-003.3C,00002191
2020-12-23 14:27:48 r, 00.00m,0000599506Hz,0000000000c,0000000.000s,-003.6C,00002191
2020-12-23 14:37:47 r, 00.00m,0000599552Hz,0000000000c,0000000.000s,-003.6C,00002191
2020-12-23 14:47:50 r, 00.00m,0000599584Hz,0000000000c,0000000.000s,-003.6C,00002191
2020-12-23 14:57:48 r, 00.00m,0000599547Hz,0000000000c,0000000.000s,-003.6C,00002191
2020-12-23 15:07:47 r, 00.00m,0000599591Hz,0000000000c,0000000.000s,-003.3C,00002191
2020-12-23 15:17:48 r, 00.00m,0000560968Hz,0000000000c,0000000.000s,-003.3C,00002191
2020-12-23 15:27:48 r, 00.00m,0000505311Hz,0000000000c,0000000.000s,-003.6C,00002191
2020-12-23 15:37:47 r, 00.00m,0000467492Hz,0000000000c,0000000.000s,-003.6C,00002191
2020-12-23 15:47:48 r, 05.83m,0000391323Hz,0000000000c,0000000.000s,-003.0C,00002191
2020-12-23 15:57:48 r, 06.08m,0000312853Hz,0000000000c,0000000.000s,-002.6C,00002191
2020-12-23 16:07:47 r, 06.40m,0000232776Hz,0000000000c,0000000.000s,-002.6C,00002191
2020-12-23 16:17:48 r, 06.84m,0000155343Hz,0000000000c,0000000.000s,-002.6C,00002191
2020-12-23 16:27:50 r, 07.45m,0000088270Hz,0000000000c,0000000.000s,-003.0C,00002191
2020-12-23 16:37:47 r, 08.33m,0000039639Hz,0000000000c,0000000.000s,-003.6C,00002191
2020-12-23 16:47:49 r, 09.54m,0000012953Hz,0000000000c,0000000.000s,-004.6C,00002191
2020-12-23 16:57:48 r, 11.17m,0000002869Hz,0000000000c,0000000.000s,-005.2C,00002191
2020-12-23 17:07:47 r, 13.13m,0000000475Hz,0000000000c,0000000.000s,-005.9C,00002191
2020-12-23 17:17:50 r, 15.00m,0000000085Hz,0000005477c,0000000.012s,-006.2C,00002191
2020-12-23 17:27:48 r, 16.63m,0000000018Hz,0000024656c,0000000.054s,-006.5C,00002191
2020-12-23 17:37:47 r, 17.83m,0000000007Hz,0000074200c,0000000.161s,-006.8C,00002191
2020-12-23 17:47:48 r, 18.51m,0000000003Hz,0000138465c,0000000.300s,-006.8C,00002191
2020-12-23 17:57:49 r, 18.74m,0000000003Hz,0000170131c,0000000.369s,-007.1C,00002191
2020-12-23 18:07:47 r, 18.78m,0000000002Hz,0000176488c,0000000.383s,-007.1C,00002191
2020-12-23 18:17:48 r, 18.79m,0000000002Hz,0000178441c,0000000.387s,-007.1C,00002191
2020-12-23 18:27:48 r, 18.72m,0000000003Hz,0000167705c,0000000.364s,-007.5C,00002191
2020-12-23 18:37:47 r, 18.68m,0000000002Hz,0000162314c,0000000.352s,-007.5C,00002191
2020-12-23 18:47:49 r, 18.66m,0000000003Hz,0000158430c,0000000.344s,-007.5C,00002191
2020-12-23 18:57:48 r, 18.62m,0000000003Hz,0000152803c,0000000.332s,-007.5C,00002191
2020-12-23 19:07:47 r, 18.58m,0000000003Hz,0000147828c,0000000.321s,-007.8C,00002191
2020-12-23 19:17:49 r, 18.54m,0000000004Hz,0000142985c,0000000.310s,-007.8C,00002191
2020-12-23 19:27:48 r, 18.52m,0000000003Hz,0000140265c,0000000.304s,-007.8C,00002191
2020-12-23 19:37:47 r, 18.49m,0000000003Hz,0000135680c,0000000.294s,-008.1C,00002191
2020-12-23 19:47:48 r, 18.46m,0000000003Hz,0000131950c,0000000.286s,-008.1C,00002191
2020-12-23 19:57:48 r, 18.43m,0000000003Hz,0000128374c,0000000.279s,-008.1C,00002191
2020-12-23 20:07:47 r, 18.40m,0000000004Hz,0000124783c,0000000.271s,-008.1C,00002191
2020-12-23 20:17:49 r, 18.39m,0000000003Hz,0000123388c,0000000.268s,-008.1C,00002191
2020-12-23 20:27:48 r, 18.36m,0000000004Hz,0000120241c,0000000.261s,-008.1C,00002191
2020-12-23 20:37:47 r, 18.36m,0000000004Hz,0000121210c,0000000.263s,-008.4C,00002191
2020-12-23 20:47:48 r, 18.40m,0000000004Hz,0000125930c,0000000.273s,-008.4C,00002191
2020-12-23 20:57:49 r, 18.48m,0000000003Hz,0000135491c,0000000.294s,-008.4C,00002191
2020-12-23 21:07:47 r, 18.57m,0000000003Hz,0000147082c,0000000.319s,-008.4C,00002191
2020-12-23 21:17:49 r, 18.65m,0000000003Hz,0000158124c,0000000.343s,-008.4C,00002191
2020-12-23 21:27:48 r, 18.71m,0000000003Hz,0000167066c,0000000.363s,-008.4C,00002191
2020-12-23 21:37:47 r, 18.77m,0000000003Hz,0000176563c,0000000.383s,-008.4C,00002191
2020-12-23 21:47:49 r, 18.82m,0000000002Hz,0000185264c,0000000.402s,-008.4C,00002191
2020-12-23 21:57:48 r, 18.88m,0000000003Hz,0000194889c,0000000.423s,-008.8C,00002191
2020-12-23 22:07:47 r, 18.93m,0000000002Hz,0000204433c,0000000.444s,-008.8C,00002191
2020-12-23 22:17:48 r, 18.98m,0000000003Hz,0000213040c,0000000.462s,-008.8C,00002191
2020-12-23 22:27:48 r, 19.02m,0000000002Hz,0000221960c,0000000.482s,-008.4C,00002191
2020-12-23 22:37:47 r, 19.06m,0000000002Hz,0000230969c,0000000.501s,-008.4C,00002191
2020-12-23 22:47:48 r, 19.10m,0000000002Hz,0000239051c,0000000.519s,-008.4C,00002191
2020-12-23 22:57:48 r, 19.13m,0000000001Hz,0000246819c,0000000.536s,-008.4C,00002191
2020-12-23 23:07:47 r, 19.18m,0000000002Hz,0000256182c,0000000.556s,-008.4C,00002191
2020-12-23 23:17:49 r, 19.20m,0000000002Hz,0000263141c,0000000.571s,-008.8C,00002191
2020-12-23 23:27:48 r, 19.23m,0000000002Hz,0000272379c,0000000.591s,-008.8C,00002191
2020-12-23 23:37:47 r, 19.27m,0000000001Hz,0000280221c,0000000.608s,-009.1C,00002191
2020-12-23 23:47:49 r, 19.30m,0000000001Hz,0000288493c,0000000.626s,-009.4C,00002191
2020-12-23 23:57:48 r, 19.33m,0000000001Hz,0000295865c,0000000.642s,-009.4C,00002191
